Home   Weather   Kazan   Past weeks
Flag for Russia

Past Weather in Kazan, Russia — Yesterday and Last 2 Weeks

Now
54 °F

Sunny.


Feels Like: 51 °F
Forecast: 68 / 44 °F
Wind: 8 mph from Southeast

Location: Kazan'

Current Time: May 25, 2019 at 8:35:23 pm

Latest Report: May 25, 2019 at 7:30 pm


Visibility: 10 mi

Pressure: 30.04 "Hg

Humidity: 44%

Dew Point: 32 °F

Location of KazanLocation

Past Weather in Kazan — Graph

°F

Kazan Temperature Yesterday

Maximum temperature yesterday: 54 °F (at 2:30 pm)
Minimum temperature yesterday: 39 °F (at 11:00 pm)
Average temperature yesterday: 47 °F

High & Low Weather Summary for the Past Weeks

 TemperatureHumidityPressure
High88 °F (May 12, 11:00 am)100% (May 23, 2:30 am)30.15 "Hg (May 23, 2:30 am)
Low34 °F (May 25, 2:00 am)15% (May 13, 12:30 pm)29.56 "Hg (May 23, 1:30 pm)
Average59 °F57%29.97 "Hg
* Reported May 10 7:00 pm — May 25 7:00 pm, Kazan. Weather by CustomWeather, © 2019

Note: Actual official high and low records may vary slightly from our data, if they occured in-between our weather recording intervals... More about our weather records

Advertising

Kazan Weather History for the Previous 24 Hours

Scroll right to see more
 ConditionsComfort  
Time TempWeatherWind HumidityBarometerVisibility
7:00 pm
Sat, May 25
55 °FSunny.10 mph41%30.04 "Hg10 mi
6:30 pm55 °FSunny.10 mph38%30.04 "Hg10 mi
6:00 pm57 °FSunny.10 mph33%30.04 "Hg10 mi
5:30 pm57 °FSunny.10 mph33%30.04 "Hg10 mi
5:00 pm57 °FSunny.10 mph33%30.04 "Hg10 mi
4:30 pm57 °FSunny.10 mph33%30.04 "Hg10 mi
4:00 pm57 °FPassing clouds.10 mph33%30.07 "HgN/A
3:30 pm57 °FPassing clouds.8 mph31%30.07 "HgN/A
3:00 pm57 °FPassing clouds.8 mph33%30.07 "HgN/A
2:30 pm57 °FSunny.10 mph31%30.07 "Hg10 mi
2:00 pm57 °FSunny.10 mph33%30.09 "Hg10 mi
1:30 pm59 °FSunny.10 mph31%30.09 "Hg10 mi
1:00 pm57 °FPassing clouds.6 mph33%30.09 "HgN/A
12:30 pm57 °FPassing clouds.6 mph33%30.09 "HgN/A
12:00 pm57 °FPassing clouds.6 mph31%30.12 "HgN/A
11:30 am55 °FPassing clouds.8 mph33%30.12 "HgN/A
11:00 am54 °FPassing clouds.8 mph35%30.12 "HgN/A
10:30 am54 °FPartly sunny.3 mph33%30.12 "HgN/A
10:00 am54 °FPartly sunny.3 mph38%30.12 "HgN/A
9:30 am54 °FPassing clouds.8 mph38%30.12 "HgN/A
9:00 am52 °FPassing clouds.3 mph38%30.12 "HgN/A
8:30 am52 °FSunny.6 mph44%30.15 "Hg10 mi
8:00 am50 °FPassing clouds.6 mph50%30.15 "HgN/A
7:30 am50 °FSunny.8 mph50%30.12 "Hg10 mi
7:00 am48 °FPassing clouds.6 mph58%30.15 "HgN/A
6:30 am46 °FPassing clouds.6 mph62%30.12 "HgN/A
6:00 am45 °FSunny.6 mph61%30.12 "Hg10 mi
5:30 am43 °FSunny.3 mph66%30.12 "Hg10 mi
5:00 am41 °FSunny.3 mph66%30.12 "Hg10 mi
4:30 am37 °FSunny.6 mph81%30.12 "Hg10 mi
3:30 am34 °FSunny.3 mph81%30.09 "Hg10 mi
3:00 am36 °FClear.6 mph75%30.09 "Hg10 mi
2:30 am34 °FClear.3 mph81%30.09 "Hg10 mi
2:00 am34 °FClear.3 mph81%30.09 "Hg10 mi
1:30 am36 °FClear.3 mph75%30.07 "Hg10 mi
1:00 am37 °FClear.1 mph70%30.07 "Hg10 mi
12:30 am37 °FClear.1 mph70%30.07 "Hg10 mi
12:00 am39 °FClear.1 mph65%30.07 "Hg10 mi
11:30 pm
Fri, May 24
41 °FClear.3 mph61%30.07 "Hg10 mi
11:00 pm39 °FPassing clouds.6 mph65%30.04 "HgN/A
10:30 pm41 °FClear.6 mph61%30.04 "Hg10 mi
10:00 pm43 °FClear.3 mph57%30.04 "Hg10 mi
9:30 pm43 °FPassing clouds.3 mph57%30.01 "HgN/A
9:00 pm43 °FPassing clouds.3 mph57%30.01 "HgN/A
8:30 pm45 °FClear.3 mph53%29.98 "Hg10 mi
8:00 pm45 °FPassing clouds.6 mph53%29.98 "HgN/A
Weather by CustomWeather, © 2019

See weather overview